Location: Theydon Bois
(51.6750°N, 0.1050°E)
Time: 21:59:51
(UTC+00:00)

N. Korean satellite - Visible Passes

Search period start: 24 February 2018 00:00
Search period end: 06 March 2018 00:00
Orbit: 459 x 514 km, 97.2° (Epoch: 24 February)

Date Brightness Start Highest point End Pass type
(mag) Time Alt. Az. Time Alt. Az. Time Alt. Az.
24 Feb 10.2 05:41:50 10° NE 05:44:05 15° E 05:46:21 10° SE visible
25 Feb 10.4 19:08:14 10° WSW 19:09:12 11° W 19:10:10 10° WNW visible
26 Feb 9.7 18:42:37 10° SW 18:45:11 19° W 18:47:48 10° NW visible
27 Feb 9.4 06:03:22 10° NE 06:06:31 25° E 06:09:39 10° SSE visible
27 Feb 8.6 18:18:03 10° SSW 18:21:15 33° W 18:24:32 10° NNW visible
28 Feb 10.2 05:40:19 10° NE 05:42:33 15° E 05:44:48 10° SE visible
01 Mar 10.4 19:06:24 10° WSW 19:07:37 11° W 19:08:51 10° WNW visible
02 Mar 9.7 18:40:57 10° SW 18:43:36 20° W 18:46:19 10° NW visible
03 Mar 9.5 06:01:48 10° NE 06:04:57 25° E 06:08:06 10° SSE visible
03 Mar 8.6 18:16:25 10° SSW 18:19:40 35° W 18:23:01 10° NNW visible
04 Mar 10.2 05:38:47 10° NE 05:40:59 15° E 05:43:10 10° SE visible
05 Mar 10.3 19:04:34 10° WSW 19:06:01 12° W 19:07:27 10° WNW visible
